Regional Weather Roundup
Issued by NWS

Home | Current Version | Previous Version | Text Only | Print | Product List | Glossary Off
Versions: 1 2 3 4 5 6 7 8 9 10 11 12 13 14 15 16 17 18 19 20 21 22 23 24 25 26 27

000
ASUS45 KBOU 252007
RWRCO

WEATHER ROUNDUP FOR COLORADO
NATIONAL WEATHER SERVICE DENVER/BOULDER CO
100 PM MST SAT FEB 25 2017

NOTE: "FAIR" INDICATES FEW OR NO CLOUDS BELOW 12000 FEET WITH NO
SIGNIFICANT WEATHER AND/OR OBSTRUCTIONS TO VISIBILITY.

COZ001>005-013-030-031-252100-
...NORTHWEST COLORADO...

CITY           SKY/WX    TMP DP  RH WIND       PRES   REMARKS
CRAIG          FAIR      24   5  44 W24G32    29.96F WCI   8
HAYDEN         PTSUNNY   21   1  42 W24G30    29.93F WCI   4
MEEKER         CLOUDY    24   8  50 W13       29.96F WCI  12
MOUNT WERNER   NOT AVBL
STEAMBOAT SPGS PTSUNNY   20   7  57 W12       29.92F WCI   8
WALDEN         NOT AVBL
$$

COZ006>008-011-252100-
...WEST CENTRAL VALLEYS...

CITY           SKY/WX    TMP DP  RH WIND       PRES   REMARKS
GRAND JUNCTION PTSUNNY   33  13  43 NW6       30.02F WCI  28
MONTROSE       NOT AVBL
EAGLE          PTSUNNY   25   7  46 W23G35    29.96F WCI  10
RIFLE          CLOUDY    29  11  47 W9        30.01F WCI  20
DELTA          CLOUDY    39   4  23 W5        30.02F
NUCLA          CLOUDY    36   0  21 W9        30.03F
$$

COZ017>023-064>068-252100-
...SOUTHWEST COLORADO...

CITY           SKY/WX    TMP DP  RH WIND       PRES   REMARKS
DURANGO        FAIR      33   4  29 SW15G23   29.97F WCI  23
CORTEZ         CLOUDY    36   6  28 W9        30.01F
PAGOSA SPRINGS PTSUNNY   30   2  30 SW15G21   29.94F WCI  19
TELLURIDE      CLOUDY    21   1  40 W10G18    29.94F WCI  10
WOLF CREEK PAS LGT SNOW   5   3  92 SW17G31   29.84F VSB 3/4 WCI -14
$$

COZ009-010-012-014-032>034-037-058>063-252100-
...CENTRAL COLORADO...

CITY           SKY/WX    TMP DP  RH WIND       PRES   REMARKS
ASPEN          CLOUDY    20   2  45 NW16      29.89F WCI   6
BUENA VISTA    FAIR      25  -4  28 W20G30    29.86S WCI  10
COPPER MTN     NOT AVBL
BERTHOUD PASS  CLOUDY    -4 -15  59 NW31G41   29.62F HAZE    WCI -32
COTTONWOOD PAS CLOUDY    18  -8  32 W24G43    29.78R WCI   0
GUNNISON       FAIR      14   3  61 E5        29.95F WCI   6
KREMMLING      CLOUDY    27   9  46 W13G23    29.88F WCI  16
LEADVILLE      CLOUDY    10  -6  48 W21G29    29.78F WCI  -9
MONARCH PASS   CLOUDY     1  -4  78 W30G43    29.84F WCI -24
SALIDA         FAIR      29 -10  17 W32G47    29.93F WCI  14
SUNLIGHT       NOT AVBL
WILKERSON PASS PTSUNNY   14 -11  31 W14G25    29.73S WCI  -1
$$

COZ069>075-252100-
...SAN LUIS VALLEY/SANGRE DE CRISTO MOUNTAINS...

CITY           SKY/WX    TMP DP  RH WIND       PRES   REMARKS
ALAMOSA        FAIR      29   5  36 E3        29.87F
LA VETA PASS   FAIR      23   3  42 SW24G38   29.77F WCI   7
SAGUACHE       FAIR      30   0  27 NW21      29.88F WCI  17
$$

COZ035-036-038>040-252100-
...NORTHERN COLORADO FRONT RANGE...

CITY           SKY/WX    TMP DP  RH WIND       PRES   REMARKS
DENVER INTL AP PTSUNNY   35   3  26 S8G17     29.83F WCI  29
DMNS CITY PARK   N/A     35  -6  16 E6G16     29.82F WCI  30
AURORA         PTSUNNY   35   1  23 CALM      29.82F
FRONT RANGE AP PTSUNNY   37   0  20 SW6G18    29.84F
ERIE MUNI ARPT FAIR      36   1  22 NE5       29.83F
BOULDER MUN AP FAIR      32  19  59 NW8       29.83F WCI  25
CENTENNIAL     FAIR      33   6  32 N8        29.82F WCI  26
BROOMFIELD     PTSUNNY   36   5  27 W13G20    29.83F
FORT COLLINS   FAIR      31  18  58 SE6       29.87F WCI  25
LONGMONT       FAIR      38   8  29 NW3       29.86F
$$

COZ041-046-047-076>085-087-088-252100-
...PIKES PEAK/PALMER DIVIDE AND SOUTHERN FOOTHILLS...

CITY           SKY/WX    TMP DP  RH WIND       PRES   REMARKS
COLO. SPRINGS  PTSUNNY   36  -9  14 E10G16    29.81F
A. F. ACADEMY  FAIR      35  -6  17 SE7G21    29.79F WCI  29
SCHRIEVER AFB  FAIR      34  -9  15 S9G16     29.81F WCI  27
ELLICOTT       NOT AVBL
FALCON         FAIR      34  -9  15 SW13      29.80F WCI  25
FORT CARSON    FAIR      39  -6  14 NW15G23   29.78F
LIMON          FAIR      35   2  24 VRB3      29.86F
MONUMENT HILL  FAIR      30   3  31 S7        29.80F WCI  23
TRINIDAD       FAIR      42  -1  16 E10       29.84F
$$

COZ042>045-048>051-090-091-252100-
...NORTHEAST COLORADO...

CITY           SKY/WX    TMP DP  RH WIND       PRES   REMARKS
GREELEY ARPT   NOT AVBL
AKRON          FAIR      29  14  53 W6        29.88F WCI  23
BURLINGTON     FAIR      39   6  25 NE9       29.90F
WRAY           NOT AVBL
STERLING       FAIR      32  19  59 SW3       29.89F
HOLYOKE        FAIR      36  19  51 NW14      29.91F
FORT MORGAN    FAIR      31  17  58 CALM      29.89F
$$

COZ086-089-092>099-252100-
...SOUTHEAST COLORADO...

CITY           SKY/WX    TMP DP  RH WIND       PRES   REMARKS
PUEBLO         FAIR      42  -2  15 S9        29.85F
LA JUNTA       FAIR      44   3  18 W8        29.89F
LAMAR          FAIR      45   4  18 NW13      29.90F
SPRINGFIELD      N/A     44   2  17 MISG      29.88F
$$




USA.gov is the U.S. government's official web portal to all federal, state and local government web resources and services.